PEGASUS DEB, 39917

Orbit data source: Space-Track

PEGASUS DEB, 39917 is space debris in LEO originally from a launch on Thu, 19 May 1994 UTC launched from the Air Force Western Test Range (AFWTR). Debris objects in space refer to the collection of defunct objects orbiting the Earth. Examples of debris include non-operational satellites, rocket bodies, and fragments generated from explosions, collisions, or faulty payload assembly.

Loading next visibility...
Identifier
39917, 1994-029AFQ
Orbit
LEO
Country
Flag of USUS
Related business
Manufacturer
Unknown
Mission
Spacecraft
Bus & Motor
Unknown
Mass
Unknown
Launch date (UTC)
1994-05-19 (32 years ago)
Launch vehicle
Unknown
Launch site
Air Force Western Test Range (AFWTR)
Object type
Payload
Rocket body
Debris
Shape & HBR
Unknown shape, 0.2 m
Radar Cross Section
Medium (>0.1 m² and <1 m²)

Expand to show TLE details & history
Last TLE update: 3 days ago

TLE from 3 days ago
0 PEGASUS DEB
1 39917U 94029AFQ 26171.11963725  .00008820  00000-0  22333-2 0  9997
2 39917  82.1337 303.9114 0443169  42.3402 321.1089 14.05095695109501
Epoch: 2026-06-20T02:52Z
TLE epoch observation values (Epoch: 2026-06-20T02:52:16.658Z)
Latitude
0.00008°
Longitude
-7.49683°
Altitude
634.762 km
Speed
7.667 km/s
True Right ascension
20h 15m 38s
True Declination
0° 00' 00"
Sunlit
Object was in full shadow at epoch
Visualization orbit readout
Latitude
Unknown
Longitude
Unknown
Altitude
Unknown
Speed
Unknown
Apparent Right ascension
Unknown
Apparent Declination
Unknown
Sunlit
N/A
Visualization observer readout
Local Sidereal Time
07:10:41
Azimuth
Unknown
Elevation
Unknown
Doppler factor
Unknown
Orbital elements
Apogee altitude
1,194.698 km
Perigee altitude
551.972 km
Semi-major axis
7,251.472 km
Eccentricity
0.04432
Inclination
82.1337°
RAAN
303.9114°
Arg. of periapsis
42.3402°
True anomaly
317.77899°
Mean anomaly
321.1089°
Eccentric anomaly
319.45844°
Mean motion
3.51483 °/min
Orbital period
102.42 mins
BSTAR
0.0022333
Loading maneuver chart data...
Computing Atmospheric mass density...

Documentation

Showing up to 5 results
|